Погода в Порт Маккуори

Австралия     31°26′54″S   152°54′06″E
темп.,
°C
ветер,
м/с
пор.,
м/с
влажн.,
%
обл.,
%
осадки,
мм/ч
давл.,
гПа
погр.,
м
9 марта, вт
вт923:00+23ссв4679100 16.8 1014482
02:00+21ссз71081100 0.0 1011414
05:00+21ссз4582100 0.0 1011221
08:00+20зсз3382100 0.0 1012153
11:00+25юз226090 0.0 1013318
14:00+25юв446326 0.0 1012294
17:00+25вюв567324 0.0 1012344
20:00+24св227326 0.0 1014313
10 марта, ср
ср1023:00+23зюз118019 0.4 1016127
02:00+22юз338261 0.1 1016282
05:00+22ю568645 1.8 1017544
08:00+23ю568364 1.3 1019642
11:00+23юв568375 2.3 1020658
14:00+23юв667778 0.6 1019805
17:00+23вюв677484 0.7 1018842
20:00+23вюв567389 0.0 1020773
11 марта, чт
чт1123:00+23в447194 0.0 1022661
02:00+22св237338 0.0 1020684
05:00+22ссв237367 0.0 1020639
08:00+23св3475100 0.1 1021586
11:00+24св557293 0.4 1021884
14:00+24св677296 0.1 1020937
17:00+24св897676 0.1 1018906
20:00+24св81077100 0.1 1019922
12 марта, пт
пт1223:00+24ссв81080100 0.4 1020941
02:00+23ссв101285100 0.8 1018971
05:00+23ссв81185100 3.9 1016908
08:00+23ссз5885100 5.4 1017513
11:00+25с577574 6.8 1017494
14:00+26с44810 2.1 1015461
17:00+25ссв68792 4.8 1014395
20:00+24с811833 2.7 1015516
13 марта, сб
сб1323:00+24с698441 3.3 1016436
02:00+23ссз578815 0.4 1015327
05:00+21сз339120 0.6 1014197
08:00+21з228821 0.0 1015137
11:00+24ююв117612 0.0 1014345
14:00+24всв45809 0.0 1012328
17:00+26ссв68794 0.0 1010542
20:00+25с712820 0.2 1012575